Location: Caseificio
(44.7500°N, 11.0500°E)
Time: 22:43:10
(UTC+00:00)

Cosmos 1025 Rocket - Pass Details

Date: 26 May 2022
Orbit: 593 x 618 km, 82.5° (Epoch: 26 June)

Event Time Altitude Azimuth Distance (km) Brightness Sun altitude
Exits shadow 00:47:05 53° 172° (S) 744 3.1 -20.7°
Maximum altitude 00:48:02 79° 98° (E) 621 3.0 -20.7°
Drops below altitude 10° 00:52:22 10° 11° (N) 1,954 6.7 -20.3°
Sets 00:54:35 0° 10° (N) 2,858 7.9 -20.2°
